Weather History for VAAH - September, 2013

Change the Weather History Date:

Wednesday, September 4, 2013

  Actual Average Record
Temperature  
Mean Temperature 86 °F -  
Max Temperature 93 °F 89 °F - (-1)
Min Temperature 78 °F 75 °F - (-1)
Cooling Degree Days 20    
Growing Degree Days 36 (Base 50)    
Moisture  
Dew Point 75 °F    
Average Humidity 71    
Maximum Humidity 89    
Minimum Humidity 44    
Precipitation  
Precipitation 0.00 in 0.10 in - ()
Sea Level Pressure  
Sea Level Pressure 29.74 in    
Wind  
Wind Speed 6 mph ()    
Max Wind Speed 10 mph    
Max Gust Speed -    
Visibility 2.7 miles    
Events      
Averages and records for this station are not official NWS values.
T = Trace of Precipitation, MM = Missing Value Source: Averaged Metar Reports

Daily Weather History Graph

Daily Weather History Graph

Search for Another Location

Airport or City:

Trip Planner

Search our weather history database for the weather conditions in past years. The results will help you decide how hot, cold, wet, or windy it might be!

Date:

Astronomy

Sep. 04, 2013 Rise Set
Actual Time 6:22 AM IST 6:54 PM IST
Civil Twilight 5:59 AM IST 7:16 PM IST
Nautical Twilight 5:33 AM IST 7:43 PM IST
Astronomical Twilight 5:06 AM IST 8:10 PM IST
Moon 5:10 AM IST (9/4) 6:00 PM IST (9/4)
Length of Visible Light 13h 16m
Length of Day
12h 31m
Waning Crescent, 2% of the Moon is Illuminated
Sep 4
Waning Crescent
Sep 5
New
Sep 12
First Quarter
Sep 19
Full
Sep 27
Last Quarter

Hourly Weather History & Observations

Time (IST) Temp. Heat Index Dew Point Humidity Pressure Visibility Wind Dir Wind Speed Gust Speed Precip Events Conditions
12:10 AM 82.4 °F 90.9 °F 77.0 °F 84% 29.74 in 2.5 mi SW 4.6 mph - N/A   Haze
12:40 AM 80.6 °F 87.1 °F 77.0 °F 89% 29.74 in 2.5 mi SW 3.5 mph - N/A   Haze
1:10 AM 80.6 °F 87.1 °F 77.0 °F 89% 29.74 in 2.5 mi WSW 3.5 mph - N/A   Haze
1:40 AM 80.6 °F 85.4 °F 73.4 °F 79% 29.74 in 2.5 mi West 8.1 mph - N/A   Haze
2:10 AM 80.6 °F 84.6 °F 71.6 °F 74% 29.74 in 2.5 mi WSW 9.2 mph - N/A   Haze
2:40 AM 80.6 °F 83.9 °F 69.8 °F 70% 29.74 in 2.5 mi West 6.9 mph - N/A   Haze
3:10 AM 80.6 °F 84.6 °F 71.6 °F 74% 29.74 in 2.5 mi West 8.1 mph - N/A   Haze
3:40 AM 80.6 °F 84.6 °F 71.6 °F 74% 29.74 in 2.5 mi West 6.9 mph - N/A   Haze
4:10 AM 80.6 °F 85.4 °F 73.4 °F 79% 29.74 in 2.5 mi West 5.8 mph - N/A   Haze
4:40 AM 80.6 °F 85.4 °F 73.4 °F 79% 29.74 in 2.5 mi West 8.1 mph - N/A   Haze
5:10 AM 78.8 °F - 73.4 °F 83% 29.74 in 2.5 mi West 5.8 mph - N/A   Haze
5:30 AM 79 °F - 74 °F 79% 29.75 in 2 mi West 4.6 mph - -   Haze
5:40 AM 78.8 °F - 73.4 °F 83% 29.74 in 2.5 mi West 8.1 mph - N/A   Haze
6:10 AM 78.8 °F - 73.4 °F 83% - 2.5 mi West 5.8 mph - N/A   Haze
6:40 AM 78.8 °F - 73.4 °F 83% 29.77 in 2.5 mi West 4.6 mph - N/A   Haze
7:10 AM 78.8 °F - 73.4 °F 83% 29.77 in 2.5 mi West 5.8 mph - N/A   Haze
8:10 AM 80.6 °F 86.2 °F 75.2 °F 84% 29.80 in 2.2 mi East 5.8 mph - N/A   Haze
9:10 AM 82.4 °F 89.5 °F 75.2 °F 79% 29.83 in 2.5 mi West 6.9 mph - N/A   Haze
9:40 AM 84.2 °F 94.1 °F 77.0 °F 79% 29.83 in 2.5 mi West 6.9 mph - N/A   Haze
10:10 AM 86.0 °F 95.1 °F 75.2 °F 70% 29.83 in 2.5 mi West 5.8 mph - N/A   Haze
10:40 AM 87.8 °F 97.6 °F 75.2 °F 66% 29.80 in 2.5 mi West 10.4 mph - N/A   Haze
11:30 AM 88 °F - 74 °F 54% 29.80 in 2 mi West 4.6 mph - -   Haze
11:40 AM 87.8 °F 97.6 °F 75.2 °F 66% 29.80 in 3.1 mi West 8.1 mph - N/A   Smoke
12:10 PM 87.8 °F 97.6 °F 75.2 °F 66% 29.80 in 3.1 mi West 6.9 mph - N/A   Smoke
12:40 PM 89.6 °F 102.2 °F 77.0 °F 66% 29.77 in 3.7 mi West 6.9 mph - N/A   Scattered Clouds
1:10 PM 89.6 °F 102.2 °F 77.0 °F 66% 29.77 in 3.7 mi West 5.8 mph - N/A   Scattered Clouds
1:40 PM 91.4 °F 102.5 °F 75.2 °F 59% 29.74 in 3.7 mi SW 8.1 mph - N/A   Scattered Clouds
2:10 PM 91.4 °F 102.5 °F 75.2 °F 59% 29.74 in 3.7 mi SW 8.1 mph - N/A   Scattered Clouds
2:30 PM 90 °F - 74 °F 50% 29.73 in 2 mi SW 4.6 mph - -   Mostly Cloudy
2:40 PM 91.4 °F 102.5 °F 75.2 °F 59% 29.71 in 3.7 mi SW 5.8 mph - N/A   Scattered Clouds
3:10 PM 91.4 °F 102.5 °F 75.2 °F 59% 29.71 in 3.7 mi SW 5.8 mph - N/A   Scattered Clouds
3:40 PM 93.2 °F 105.0 °F 75.2 °F 56% 29.68 in 3.7 mi WSW 6.9 mph - N/A   Scattered Clouds
4:10 PM 93.2 °F 102.4 °F 73.4 °F 52% 29.68 in 3.7 mi WSW 9.2 mph - N/A   Scattered Clouds
4:40 PM 93.2 °F 105.0 °F 75.2 °F 56% 29.68 in 3.7 mi WSW 6.9 mph - N/A   Scattered Clouds
5:10 PM 91.4 °F 102.5 °F 75.2 °F 59% 29.68 in 3.7 mi SSW 5.8 mph - N/A   Scattered Clouds
5:30 PM 91 °F - 72 °F 44% 29.68 in 2 mi SW 4.6 mph - -   Scattered Clouds
5:40 PM 91.4 °F 100.1 °F 73.4 °F 55% 29.68 in 3.7 mi SW 6.9 mph - N/A   Partly Cloudy
6:10 PM 89.6 °F 98.2 °F 73.4 °F 59% 29.68 in 3.7 mi SSW 6.9 mph - N/A   Partly Cloudy
7:40 PM 87.8 °F 95.6 °F 73.4 °F 62% 29.71 in 2.5 mi SSE 3.5 mph - N/A   Smoke
8:10 PM 84.2 °F 92.3 °F 75.2 °F 74% 29.71 in 2.5 mi South 8.1 mph - N/A   Smoke
8:30 PM 86 °F - 77 °F 68% 29.71 in 2 mi South 6.9 mph - -   Haze
8:40 PM 86.0 °F 95.1 °F 75.2 °F 70% 29.71 in 2.5 mi South 6.9 mph - N/A   Haze
9:10 PM 84.2 °F 94.1 °F 77.0 °F 79% 29.74 in 2.5 mi SSW 10.4 mph - N/A   Haze
9:40 PM 84.2 °F 92.3 °F 75.2 °F 74% 29.74 in 2.5 mi South 10.4 mph - N/A   Haze
10:10 PM 84.2 °F 92.3 °F 75.2 °F 74% 29.74 in 2.5 mi SSW 8.1 mph - N/A   Haze
10:40 PM 84.2 °F 94.1 °F 77.0 °F 79% 29.74 in 2.5 mi SSW 5.8 mph - N/A   Haze
11:10 PM 82.4 °F 90.9 °F 77.0 °F 84% 29.74 in 2.5 mi SSW 5.8 mph - N/A   Haze
11:30 PM 82 °F - 75 °F 73% 29.75 in 1 mi South 5.8 mph - -   Haze
11:40 PM 80.6 °F 86.2 °F 75.2 °F 84% 29.74 in 2.5 mi South 6.9 mph - N/A   Haze